Change the Weather History Date:

Thursday, July 18, 2013

  Actual Average Record
Temperature  
Mean Temperature 74 °F -  
Max Temperature 86 °F 79 °F 89 °F (1998)
Min Temperature 62 °F 57 °F 48 °F (2008)
Cooling Degree Days 9    
Growing Degree Days 24 (Base 50)    
Moisture  
Dew Point 66 °F    
Average Humidity 83    
Maximum Humidity 100    
Minimum Humidity 62    
Precipitation  
Precipitation 0.00 in - - ()
Sea Level Pressure  
Sea Level Pressure 29.84 in    
Wind  
Wind Speed 8 mph (North)    
Max Wind Speed 17 mph    
Max Gust Speed 23 mph    
Visibility 10 miles    
Events      
Averages and records for this station are not official NWS values.
T = Trace of Precipitation, MM = Missing Value Source: NWS Daily Summary

Daily Weather History Graph

Daily Weather History Graph

Search for Another Location

Airport or City:

Trip Planner

Search our weather history database for the weather conditions in past years. The results will help you decide how hot, cold, wet, or windy it might be!

Date:

Astronomy

Jul. 18, 2013 Rise Set
Actual Time 5:49 AM CDT 9:21 PM CDT
Civil Twilight 5:10 AM CDT 10:00 PM CDT
Nautical Twilight 4:18 AM CDT 10:51 PM CDT
Astronomical Twilight 3:08 AM CDT 12:00 AM CDT
Moon 5:17 PM CDT (7/18) 1:45 AM CDT (7/18)
Length of Visible Light 16h 49m
Length of Day
15h 32m
Waxing Gibbous, 77% of the Moon is Illuminated
Jul 18
Waxing Gibbous
Jul 22
Full
Jul 29
Last Quarter
Aug 6
New
Aug 14
First Quarter

Hourly Weather History & Observations

Time (CDT) Temp. Heat Index Dew Point Humidity Pressure Visibility Wind Dir Wind Speed Gust Speed Precip Events Conditions
12:58 AM 68.2 °F - 57.0 °F 67% 30.04 in 10.0 mi NE 5.8 mph - N/A   Mostly Cloudy
1:58 AM 67.3 °F - 56.8 °F 69% 30.01 in 10.0 mi NNE 6.9 mph - N/A   Overcast
2:58 AM 63.9 °F - 60.1 °F 87% 30.00 in 10.0 mi NE 13.8 mph - N/A   Mostly Cloudy
3:58 AM 65.7 °F - 59.5 °F 81% 29.95 in 10.0 mi East 11.5 mph - N/A   Clear
4:58 AM 64.8 °F - 61.0 °F 88% 29.93 in 10.0 mi ENE 5.8 mph - N/A   Overcast
5:58 AM 65.7 °F - 62.2 °F 89% 29.91 in 10.0 mi NNE 2.3 mph - N/A   Mostly Cloudy
6:33 AM 64.4 °F - 62.6 °F 94% 29.90 in 10.0 mi North 10.4 mph - N/A   Mostly Cloudy
6:43 AM 62.6 °F - 62.6 °F 100% 29.90 in 4.0 mi North 6.9 mph - N/A   Mostly Cloudy
6:58 AM 62.6 °F - 62.2 °F 99% 29.90 in 10.0 mi North 6.9 mph - N/A   Overcast
7:29 AM 62.6 °F - 62.6 °F 100% 29.87 in 5.0 mi NNE 4.6 mph - N/A   Mostly Cloudy
7:58 AM 64.2 °F - 64.0 °F 99% 29.88 in 10.0 mi North 8.1 mph - N/A   Overcast
8:13 AM 64.4 °F - 64.4 °F 100% 29.90 in 10.0 mi North 17.3 mph 23.0 mph N/A   Overcast
8:31 AM 64.4 °F - 64.4 °F 100% 29.89 in 10.0 mi NE 12.7 mph - N/A   Overcast
8:41 AM 64.4 °F - 64.4 °F 100% 29.88 in 10.0 mi NE 15.0 mph - N/A   Mostly Cloudy
8:56 AM 66.2 °F - 64.4 °F 94% 29.87 in 10.0 mi ENE 9.2 mph - N/A   Mostly Cloudy
8:58 AM 65.8 °F - 64.0 °F 94% 29.89 in 10.0 mi ENE 9.2 mph - N/A   Mostly Cloudy
9:08 AM 68.0 °F - 64.4 °F 88% 29.87 in 10.0 mi East 5.8 mph - N/A   Mostly Cloudy
9:13 AM 68.0 °F - 64.4 °F 88% 29.87 in 10.0 mi ENE 6.9 mph - N/A   Mostly Cloudy
9:58 AM 71.4 °F - 65.5 °F 81% 29.86 in 10.0 mi Variable 3.5 mph - N/A   Partly Cloudy
10:58 AM 74.8 °F - 67.8 °F 79% 29.82 in 10.0 mi Variable 3.5 mph - N/A   Clear
11:58 AM 78.4 °F - 69.6 °F 74% 29.79 in 10.0 mi SSE 5.8 mph - N/A   Clear
12:58 PM 82.0 °F 86.1 °F 70.3 °F 68% 29.78 in 10.0 mi Variable 5.8 mph - N/A   Clear
1:58 PM 82.8 °F 86.9 °F 70.3 °F 66% 29.76 in 10.0 mi WNW 6.9 mph - N/A   Clear
2:58 PM 85.1 °F 90.1 °F 70.7 °F 62% 29.75 in 10.0 mi North 5.8 mph - N/A   Clear
3:58 PM 85.1 °F 91.8 °F 73.0 °F 67% 29.74 in 10.0 mi NNW 6.9 mph - N/A   Mostly Cloudy
4:58 PM 85.5 °F 93.0 °F 73.8 °F 68% 29.73 in 10.0 mi West 9.2 mph - N/A   Partly Cloudy
5:58 PM 86.2 °F 92.2 °F 72.0 °F 62% 29.71 in 10.0 mi NW 11.5 mph - N/A   Partly Cloudy
6:58 PM 84.2 °F 90.3 °F 72.5 °F 68% 29.70 in 10.0 mi WNW 9.2 mph - N/A   Clear
7:58 PM 82.9 °F 86.7 °F 69.4 °F 64% 29.70 in 10.0 mi WNW 10.4 mph 20.7 mph N/A   Clear
8:58 PM 79.3 °F - 69.6 °F 72% 29.72 in 10.0 mi NW 8.1 mph - N/A   Clear
9:58 PM 75.4 °F - 68.2 °F 78% 29.72 in 10.0 mi West 3.5 mph - N/A   Clear
10:58 PM 69.8 °F - 67.5 °F 92% 29.70 in 10.0 mi WSW 6.9 mph - N/A   Clear
11:58 PM 72.7 °F - 68.5 °F 87% 29.71 in 10.0 mi WNW 4.6 mph - N/A   Clear